Regional Weather Roundup
Issued by NWS State College, PA

Home | Current Version | Previous Version | Text Only | Print | Product List | Glossary Off
Versions: 1 2 3 4 5 6 7 8 9 10 11 12 13 14 15 16 17 18 19 20 21 22 23 24 25 26 27 28 29 30 31 32 33 34 35 36 37 38 39 40 41 42 43 44 45 46 47 48 49 50

000
ASUS41 KCTP 302310
RWRCTP

REGIONAL WEATHER ROUNDUP
NATIONAL WEATHER SERVICE STATE COLLEGE PA
700 PM EDT WED JUL 30 2014

Note: "fair" indicates few or no clouds below 12,000 feet with no
significant weather and/or obstructions to visibility.

* = STATION THAT DOES NOT REPORT PRECIPITATION /E.G. RAIN...SNOW...ETC/
    THUNDER OR FOG.

PAZ002>004-007>009-013>016-020>023-029>032-310000-
WESTERN PENNSYLVANIA

CITY           SKY/WX    TMP DP  RH WIND       PRES   REMARKS
ERIE           SUNNY     70  57  63 W7        29.99S
MEADVILLE      CLOUDY    65  61  87 CALM      30.02S
FRANKLIN*      MOSUNNY   64  55  72 SE7       30.05R
NEW CASTLE     CLOUDY    69  60  73 CALM      30.02R
BEAVER COUNTY  SUNNY     70  55  60 SW6       30.03R
BUTLER*        CLOUDY    70  57  64 SW6       30.04S
PITTSBURGH INT CLOUDY    70  58  65 SW8       30.03R
PITTSBURGH     CLOUDY    69  56  62 SW5       30.03R
INDIANA*       PTSUNNY   64  61  88 CALM      30.07F
LATROBE        MOSUNNY   66  59  77 W6        30.05S
WASHINGTON CO* CLOUDY    59  55  88 CALM      30.06S
$$

PAZ004>006-010>012-017>019-024>028-033>037-041-042-045-046-049>053-310000-
CENTRAL PENNSYLVANIA

CITY           SKY/WX    TMP DP  RH WIND       PRES   REMARKS
BRADFORD       PTSUNNY   63  56  78 VRB7      30.04R
DUBOIS         CLOUDY    61  59  93 S5        30.05R
CLEARFIELD     CLOUDY    59  58  96 S6        30.06S
JOHNSTOWN      CLOUDY    64  54  69 SW12      30.07R
ALTOONA        LGT RAIN  67  61  81 W6        30.05R
STATE COLLEGE  TSTM      57  55  94 E9        30.06R
WILLIAMSPORT   LGT RAIN  65  60  84 CALM      30.01R
SELINSGROVE    MOSUNNY   74  56  53 S6        30.01S
FT INDIANTOWN  SUNNY     75  55  50 S9        30.02S
CAPITAL CITY   SUNNY     74  53  48 S7        30.02R
HARRISBURG     MOSUNNY   76  55  48 S7        30.01R
YORK           SUNNY     74  54  49 SW5       30.03R
$$

PAZ038>040-043-044-047-048-054-055-060>062-067>071-310000-
EASTERN PENNSYLVANIA

CITY           SKY/WX    TMP DP  RH WIND       PRES   REMARKS
SCRANTON       PTSUNNY   74  50  42 SW8       30.02R
MOUNT POCONO   SUNNY     68  52  56 SW7       30.06R
ALLENTOWN      SUNNY     74  53  48 W8        30.02R
QUAKERTOWN*    CLEAR     73  55  53 SW3       30.04R
READING        SUNNY     76  53  44 W6        30.01S
LANCASTER      SUNNY     73  52  47 SW7       30.03R
COATESVILLE    CLEAR     72  54  53 SW3       30.05R
POTTSTOWN      MOSUNNY   74  53  48 S3        30.04S
BLUE BELL      SUNNY     77  54  44 W3        30.02R
DOYLESTOWN     SUNNY     74  53  48 W7        30.02R
WILLOW GROVE   NOT AVBL
NORTH PHILA    SUNNY     78  50  37 W8        30.03R
PHILADELPHIA   MOSUNNY   78  53  41 SW12      30.03R
$$


USA.gov is the U.S. government's official web portal to all federal, state and local government web resources and services.